Greenfield, IN

2:36 AM EST on February 23, 2017 (GMT -0500)
Mount Comfort

Weather History for KMQJ - August, 2014

Change the Weather History Date:

Tuesday, August 12, 2014

  Actual Average (KEYE) Record (KEYE)
Temperature  
Mean Temperature 64 °F -  
Max Temperature 68 °F 80 °F 96 °F (2007)
Min Temperature 59 °F 63 °F 50 °F (2004)
Degree Days  
Heating Degree Days 2    
Growing Degree Days 14 (Base 50)    
Moisture  
Dew Point 65 °F    
Average Humidity 98    
Maximum Humidity 100    
Minimum Humidity 88    
Precipitation  
Precipitation 0.00 in - - ()
Sea Level Pressure  
Sea Level Pressure 29.87 in    
Wind  
Wind Speed 8 mph (West)    
Max Wind Speed 20 mph    
Max Gust Speed 26 mph    
Visibility 9 miles    
Events      
Averages and records for this station are not official NWS values.
T = Trace of Precipitation, MM = Missing Value Source: NWS Daily Summary

Daily Weather History Graph

Daily Weather History Graph

Search for Another Location

Airport or City:

Trip Planner

Search our weather history database for the weather conditions in past years. The results will help you decide how hot, cold, wet, or windy it might be!

Date:

Astronomy

Aug. 12, 2014 Rise Set
Actual Time 6:52 AM EDT 8:43 PM EDT
Civil Twilight 6:23 AM EDT 9:13 PM EDT
Nautical Twilight 5:47 AM EDT 9:48 PM EDT
Astronomical Twilight 5:09 AM EDT 10:26 PM EDT
Moon 9:51 PM EDT (8/12) 9:09 AM EDT (8/12)
Length of Visible Light 14h 49m
Length of Day
13h 51m
Waning Gibbous, 95% of the Moon is Illuminated
Aug 12
Waning Gibbous
Aug 17
Last Quarter
Aug 25
New
Sep 2
First Quarter
Sep 8
Full

Hourly Weather History & Observations

Time (EDT) Temp. Dew Point Humidity Pressure Visibility Wind Dir Wind Speed Gust Speed Precip Events Conditions
12:16 AM 68.0 °F - N/A% 29.84 in 7.0 mi SW 4.6 mph - N/A   Clear
12:35 AM 68.0 °F - N/A% 29.84 in 7.0 mi SW 3.5 mph - N/A   Clear
12:56 AM 68.0 °F - N/A% 29.84 in 7.0 mi Calm Calm - N/A   Clear
1:35 AM 66.2 °F - N/A% 29.83 in 4.0 mi SSW 3.5 mph - N/A   Clear
1:55 AM 66.2 °F - N/A% 29.82 in 4.0 mi SW 3.5 mph - N/A   Clear
2:16 AM 66.2 °F - N/A% 29.82 in 4.0 mi SW 3.5 mph - N/A   Clear
2:35 AM 68.0 °F - N/A% 29.82 in 5.0 mi WSW 4.6 mph - N/A   Scattered Clouds
2:55 AM 68.0 °F - N/A% 29.81 in 7.0 mi WSW 4.6 mph - N/A   Scattered Clouds
3:16 AM 68.0 °F - N/A% 29.81 in 7.0 mi WSW 3.5 mph - N/A   Clear
3:35 AM 68.0 °F - N/A% 29.81 in 7.0 mi West 6.9 mph - N/A   Clear
3:55 AM 68.0 °F - N/A% 29.81 in 7.0 mi West 6.9 mph - N/A   Clear
4:16 AM 68.0 °F - N/A% 29.80 in 7.0 mi West 6.9 mph - N/A   Scattered Clouds
4:35 AM 68.0 °F - N/A% 29.80 in 7.0 mi West 6.9 mph - N/A   Scattered Clouds
4:55 AM 68.0 °F - N/A% 29.80 in 10.0 mi West 8.1 mph - N/A   Mostly Cloudy
5:35 AM 68.0 °F - N/A% 29.81 in 10.0 mi West 9.2 mph - N/A   Overcast
5:56 AM 66.2 °F - N/A% 29.81 in 10.0 mi West 9.2 mph - N/A   Overcast
6:15 AM 66.2 °F - N/A% 29.81 in 10.0 mi West 5.8 mph - N/A   Overcast
6:36 AM 66.2 °F - N/A% 29.81 in 10.0 mi West 4.6 mph - N/A   Mostly Cloudy
6:55 AM 64.4 °F - N/A% 29.82 in 10.0 mi WSW 9.2 mph - N/A   Mostly Cloudy
7:16 AM 64.4 °F - N/A% 29.82 in 10.0 mi West 12.7 mph 18.4 mph N/A   Scattered Clouds
7:35 AM 64.4 °F - N/A% 29.83 in 10.0 mi West 10.4 mph - N/A   Mostly Cloudy
7:56 AM 64.4 °F - N/A% 29.83 in 10.0 mi West 9.2 mph - N/A   Overcast
8:16 AM 64.4 °F 64.4 °F 100% 29.83 in 10.0 mi West 8.1 mph - N/A   Overcast
8:35 AM 64.4 °F 64.4 °F 100% 29.83 in 10.0 mi West 16.1 mph 20.7 mph N/A   Overcast
8:56 AM 64.4 °F 64.4 °F 100% 29.83 in 10.0 mi West 8.1 mph 11.5 mph N/A   Overcast
9:16 AM 66.2 °F 66.2 °F 100% 29.82 in 10.0 mi West 8.1 mph - N/A   Overcast
9:35 AM 66.2 °F 66.2 °F 100% 29.82 in 10.0 mi West 13.8 mph - N/A   Overcast
9:56 AM 66.2 °F 66.2 °F 100% 29.83 in 10.0 mi West 11.5 mph 16.1 mph N/A   Overcast
10:16 AM 66.2 °F 66.2 °F 100% 29.83 in 10.0 mi West 13.8 mph 20.7 mph N/A   Overcast
10:35 AM 66.2 °F 66.2 °F 100% 29.83 in 10.0 mi West 15.0 mph 18.4 mph N/A   Overcast
10:56 AM 66.2 °F 66.2 °F 100% 29.84 in 10.0 mi West 13.8 mph - N/A   Overcast
11:15 AM 66.2 °F 66.2 °F 100% 29.84 in 10.0 mi West 13.8 mph 24.2 mph N/A   Overcast
11:35 AM 66.2 °F 66.2 °F 100% 29.84 in 10.0 mi West 16.1 mph 21.9 mph N/A   Overcast
11:55 AM 64.4 °F 64.4 °F 100% 29.85 in 3.0 mi West 13.8 mph 19.6 mph N/A   Overcast
1:35 PM 66.2 °F - N/A% 29.86 in 7.0 mi WNW 13.8 mph 19.6 mph N/A   Mostly Cloudy
1:55 PM 66.2 °F 66.2 °F 100% 29.87 in 7.0 mi West 11.5 mph - N/A   Mostly Cloudy
2:16 PM 64.4 °F - N/A% 29.87 in 5.0 mi West 10.4 mph 18.4 mph N/A   Overcast
2:35 PM 66.2 °F 66.2 °F 100% 29.87 in 10.0 mi WNW 15.0 mph 18.4 mph N/A   Overcast
2:56 PM 64.4 °F 64.4 °F 100% 29.87 in 7.0 mi WNW 13.8 mph 24.2 mph N/A   Overcast
3:15 PM 68.0 °F 66.2 °F 94% 29.88 in 10.0 mi WNW 19.6 mph 23.0 mph N/A   Mostly Cloudy
3:35 PM 68.0 °F 66.2 °F 94% 29.88 in 10.0 mi WNW 9.2 mph - N/A   Mostly Cloudy
3:56 PM 68.0 °F 66.2 °F 94% 29.88 in 10.0 mi West 18.4 mph 21.9 mph N/A   Mostly Cloudy
4:35 PM 68.0 °F 64.4 °F 88% 29.89 in 10.0 mi WNW 16.1 mph 20.7 mph N/A   Mostly Cloudy
4:56 PM 68.0 °F 64.4 °F 88% 29.90 in 10.0 mi WNW 15.0 mph 26.5 mph N/A   Overcast
5:15 PM 66.2 °F 64.4 °F 94% 29.90 in 10.0 mi WNW 17.3 mph 23.0 mph N/A   Mostly Cloudy
5:35 PM 66.2 °F 62.6 °F 88% 29.91 in 10.0 mi West 16.1 mph - N/A   Mostly Cloudy
5:56 PM 64.4 °F 64.4 °F 100% 29.92 in 10.0 mi WNW 15.0 mph - N/A   Mostly Cloudy
6:15 PM 64.4 °F 62.6 °F 94% 29.92 in 10.0 mi WNW 16.1 mph 24.2 mph N/A   Overcast
6:36 PM 64.4 °F 64.4 °F 100% 29.93 in 7.0 mi NW 11.5 mph 19.6 mph N/A   Overcast
6:56 PM 60.8 °F 60.8 °F 100% 29.94 in 2.5 mi NW 6.9 mph - N/A   Overcast
7:15 PM 60.8 °F - N/A% 29.94 in 1.8 mi NW 4.6 mph - N/A   Overcast
7:56 PM 62.6 °F - N/A% 29.94 in 10.0 mi WNW 8.1 mph - N/A   Overcast
8:15 PM 62.6 °F - N/A% 29.94 in 10.0 mi WNW 6.9 mph - N/A   Overcast
8:36 PM 62.6 °F - N/A% 29.94 in 10.0 mi WNW 6.9 mph - N/A   Mostly Cloudy
8:55 PM 62.6 °F - N/A% 29.96 in 10.0 mi WNW 8.1 mph - N/A   Overcast
9:15 PM 60.8 °F - N/A% 29.96 in 10.0 mi WNW 9.2 mph - N/A   Overcast
9:36 PM 60.8 °F - N/A% 29.97 in 10.0 mi NW 8.1 mph - N/A   Mostly Cloudy
9:55 PM 60.8 °F - N/A% 29.97 in 10.0 mi NW 5.8 mph - N/A   Scattered Clouds
10:15 PM 59.0 °F - N/A% 29.98 in 10.0 mi NW 6.9 mph - N/A   Clear
10:55 PM 60.8 °F - N/A% 29.99 in 10.0 mi NW 8.1 mph - N/A   Mostly Cloudy
11:15 PM 60.8 °F - N/A% 29.99 in 10.0 mi NW 8.1 mph - N/A   Overcast
11:36 PM 60.8 °F 60.8 °F 100% 29.99 in 10.0 mi NNW 8.1 mph - N/A   Mostly Cloudy
11:55 PM 59.0 °F - N/A% 29.99 in 10.0 mi NW 5.8 mph - N/A   Scattered Clouds